EW0779 Largo FL US current weather conditions

sailwx.info

Wind from 035 at 0 knots gusting 8

Air temperature 19.4° C
Dewpoint 13.2° C

Last reported at 2019-Mar-19 01:02 UTC.
Time now 2019-Mar-19 01:33 UTC

Location: N 27°52' W 082°50'.
View on Google Maps.

See reports from other nearby stations

  
Tides and Currents Weather Stations Pressure Air Temp Water Temp Dewpoint Dewpoint Depression Visibility Wind Speed Wind Dir Waves Ship Positions
date/time (UTC)wind fromknots sea level pressurealtimeterstation pressurevisibilityair tempwater tempwave heightnotes
2019-Mar-19 01:02 035 0 gusting 8 19.4
2019-Mar-19 00:47 065 20.0
2019-Mar-19 00:32 074 20.0
2019-Mar-19 00:16 042 20.0
2019-Mar-19 00:02 360 20.0
2019-Mar-18 23:47 011 20.6
2019-Mar-18 23:32 023 20.6
2019-Mar-18 23:17 005 20.6
2019-Mar-18 23:01 319 0 gusting 8 20.6
2019-Mar-18 22:46 350 0 gusting 7 20.6
2019-Mar-18 22:31 360 20.6
2019-Mar-18 22:16 305 20.6
2019-Mar-18 22:01 350 20.6
2019-Mar-18 21:46 355 0 gusting 8 20.6
2019-Mar-18 21:31 355 21.1
2019-Mar-18 21:16 350 0 gusting 8 21.1
2019-Mar-18 21:01 322 21.1
2019-Mar-18 20:46 017 21.1
2019-Mar-18 20:31 338 1 gusting 9 21.7
2019-Mar-18 20:18 005 2 gusting 10 21.7
2019-Mar-18 20:01 360 21.7
2019-Mar-18 19:46 360 1 gusting 8 21.7
2019-Mar-18 19:31 005 22.2
2019-Mar-18 19:16 034 21.7
2019-Mar-18 19:01 012 0 gusting 7 22.2
2019-Mar-18 18:46 300 22.8
2019-Mar-18 18:31 330 22.2
2019-Mar-18 18:16 338 22.2
2019-Mar-18 18:01 326 23.3
2019-Mar-18 17:46 038 22.8
2019-Mar-18 17:32 098 22.8
2019-Mar-18 17:16 080 22.8
2019-Mar-18 17:01 042 22.8
2019-Mar-18 16:46 355 21.7
2019-Mar-18 16:31
2019-Mar-18 16:15
2019-Mar-18 16:00
2019-Mar-18 15:45
2019-Mar-18 15:30
2019-Mar-18 15:15
2019-Mar-18 15:00
2019-Mar-18 14:47
2019-Mar-18 14:32
2019-Mar-18 14:16
2019-Mar-18 14:01
2019-Mar-18 13:46
2019-Mar-18 13:31
2019-Mar-18 13:16
2019-Mar-18 13:01
2019-Mar-18 12:45
2019-Mar-18 12:30
2019-Mar-18 12:15
2019-Mar-18 12:00
2019-Mar-18 11:45
2019-Mar-18 11:32
2019-Mar-18 11:16
2019-Mar-18 11:01
2019-Mar-18 10:46
2019-Mar-18 10:32 360 14.4
2019-Mar-18 10:16 065 15.0
2019-Mar-18 10:01 042 15.0
2019-Mar-18 09:46 360 15.0
2019-Mar-18 09:31 345 15.0
2019-Mar-18 09:16 028 15.0
2019-Mar-18 09:01 005 15.0
2019-Mar-18 08:46 075 15.0
2019-Mar-18 08:31 060 15.0
2019-Mar-18 08:16 078 15.6
2019-Mar-18 08:01 009 15.6
2019-Mar-18 07:45 025 15.6
2019-Mar-18 07:31 053 15.6
2019-Mar-18 07:15 057 15.6
2019-Mar-18 07:00 090 15.6
2019-Mar-18 06:46 082 15.6
2019-Mar-18 06:30 050 15.6
2019-Mar-18 06:15 010 16.1
2019-Mar-18 06:00 005 16.1
2019-Mar-18 05:45 034 16.7
2019-Mar-18 05:30 360 16.7
2019-Mar-18 05:15 040 16.7
2019-Mar-18 05:00 010 17.2
2019-Mar-18 04:45 011 17.2
2019-Mar-18 04:30 056 17.2
2019-Mar-18 04:15 050 17.2
2019-Mar-18 04:00 057 17.2
2019-Mar-18 03:45 017 17.8
2019-Mar-18 03:30 017 17.8
2019-Mar-18 03:15 047 17.8
2019-Mar-18 03:03 025 17.8
2019-Mar-18 02:46 031 17.8
2019-Mar-18 02:31 064 18.3
2019-Mar-18 02:02 100 18.3
2019-Mar-18 01:47 053 18.9
2019-Mar-18 01:31 054 18.9
2019-Mar-18 01:16 032 18.9
2019-Mar-18 01:01 030 19.4
2019-Mar-18 00:46 057 19.4
2019-Mar-18 00:32 018 20.0
2019-Mar-18 00:16 005 20.0
2019-Mar-18 00:01 010 20.6
2019-Mar-17 23:46 360 20.6
2019-Mar-17 23:32 334 21.1
2019-Mar-17 23:16 005 21.1
2019-Mar-17 23:01 322 21.1
2019-Mar-17 22:46 360 0 gusting 5 21.7
2019-Mar-17 22:32 350 22.2
2019-Mar-17 22:16 009 22.2
2019-Mar-17 22:02 014 22.2
2019-Mar-17 21:46 005 22.2
2019-Mar-17 21:31 360 22.2
2019-Mar-17 21:16 346 22.2
2019-Mar-17 21:01 011 22.2
2019-Mar-17 20:47 351 22.2
2019-Mar-17 20:31 342 22.8
2019-Mar-17 20:16 355 22.8
2019-Mar-17 20:01 035 22.2
2019-Mar-17 19:46 342 21.7
2019-Mar-17 19:31 340 21.7
2019-Mar-17 19:15 355 21.7
2019-Mar-17 19:01 290 21.7
2019-Mar-17 18:46 233 22.2
2019-Mar-17 18:32 131 22.2
2019-Mar-17 18:16 083 23.3
2019-Mar-17 18:01 067 23.9
2019-Mar-17 17:47 116 23.9
2019-Mar-17 17:30 049 23.9
2019-Mar-17 17:16 061 23.3
2019-Mar-17 17:00 076 22.8
2019-Mar-17 16:45 080 22.8
2019-Mar-17 16:30 042 22.2
2019-Mar-17 16:15 017 21.1
2019-Mar-17 16:00
2019-Mar-17 15:45
2019-Mar-17 15:30
2019-Mar-17 15:15
2019-Mar-17 15:02
2019-Mar-17 14:46
2019-Mar-17 14:31
2019-Mar-17 14:16
2019-Mar-17 14:01
2019-Mar-17 13:46
2019-Mar-17 13:31
2019-Mar-17 13:15
2019-Mar-17 13:00
2019-Mar-17 12:45
2019-Mar-17 12:30
2019-Mar-17 12:15
2019-Mar-17 12:00
2019-Mar-17 11:45
2019-Mar-17 11:32
2019-Mar-17 11:17
2019-Mar-17 11:02
2019-Mar-17 10:46 060 17.8
2019-Mar-17 10:32 009 18.3
2019-Mar-17 10:15 344 18.3
2019-Mar-17 10:01 070 18.3
2019-Mar-17 09:46 070 18.3
2019-Mar-17 09:31 070 18.9
2019-Mar-17 09:16 069 18.9
2019-Mar-17 09:01 062 18.9
2019-Mar-17 08:46 050 18.9
2019-Mar-17 08:30 022 18.9
2019-Mar-17 08:16 068 19.4
2019-Mar-17 08:01 080 19.4
2019-Mar-17 07:46 052 19.4
2019-Mar-17 07:30 019 19.4
2019-Mar-17 07:15 034 19.4
2019-Mar-17 07:00 069 19.4
2019-Mar-17 06:46 040 19.4
2019-Mar-17 06:30 044 19.4
2019-Mar-17 06:16 046 19.4
2019-Mar-17 06:01 082 19.4
2019-Mar-17 05:46 090 20.0
2019-Mar-17 05:30 069 20.0
2019-Mar-17 05:15 094 20.0
2019-Mar-17 05:00 065 0 gusting 4 20.0
2019-Mar-17 04:45 074 20.6
2019-Mar-17 04:30 061 0 gusting 3 20.6
2019-Mar-17 04:15 077 20.6
2019-Mar-17 04:00 065 20.6
2019-Mar-17 03:45 075 1 gusting 6 21.1
2019-Mar-17 03:30 068 21.1
2019-Mar-17 03:15 051 21.1
2019-Mar-17 03:00 051 21.1
2019-Mar-17 02:45 012 21.1
2019-Mar-17 02:30 012 21.1
2019-Mar-17 02:15 017 21.1
2019-Mar-17 02:00 017 21.1
2019-Mar-17 01:45 017 21.7
2019-Mar-17 01:30 017 21.7
2019-Mar-17 01:17 017 21.7
2019-Mar-17 01:02 017 21.7